Погода в Ньяунг-У

Мьянма     22°46′09″N   95°25′34″E
В апреле 2022 года жителям России запретили посещать сайт meteo.paraplan.net по решению Генеральной прокуратуры. Аудитория сайта уменьшилась в 10 раз. Владельцы сайта не видят смысла в поддержке погодного сервера в таких условиях. Сайт будет закрыт в октябре.
темп.,
°C
ветер,
м/с
пор.,
м/с
влажн.,
%
обл.,
%
осадки,
мм/ч
давл.,
гПа
погр.,
м
4 октября, вт
вт400:30+24ссв239498 5.1 101056
03:30+24с249476 3.0 100982
06:30+24с359692 3.3 1011165
09:30+28с348067 0.0 1011572
12:30+31ссз226683 0.0 10091172
15:30+32сз2263100 0.1 10061105
18:30+28в117793 0.2 100713
21:30+27юв118185 0.0 100911
5 октября, ср
ср500:30+26всв018840 2.2 100911
03:30+24юв129651 9.1 100931
06:30+24юв249690 9.7 1010128
09:30+28юв44835 1.5 1011367
12:30+31ю34694 6.3 1009908
15:30+32ююв346713 1.1 10071117
18:30+28в117647 2.0 100811
21:30+27ююв348196 0.1 101084
6 октября, чт
чт600:30+25юв3794100 1.8 1010174
03:30+24юв3696100 0.0 1009149
06:30+24юв2594100 0.0 1011155
09:30+28ю3477100 0.0 1012681
12:30+31ю236598 0.1 10101331
15:30+30зсз1170100 0.0 1007438
18:30+28с227628 0.1 100815
21:30+26ссв238343 0.0 101158
7 октября, пт
пт700:30+25с338787 0.0 101162
03:30+24с349260 0.0 1010107
06:30+24с23935 0.3 1011103
09:30+28с22803 2.5 1012456
12:30+31ссз116727 4.9 10091073
15:30+31з116423 0.0 10071176
18:30+28з11765 0.0 100711
21:30+27ссз22835 0.0 101020
8 октября, сб
сб800:30+26св118742 0.4 101012
03:30+25юв3594100 2.3 1010161
06:30+24ююв2494100 2.4 1011123
09:30+28юз128051 0.0 1012570
12:30+31юз226740 0.0 10091175
15:30+32юз226127 0.1 10061402
18:30+28ю117218 0.1 100711
21:30+27вюв227712 0.0 100923